FW9075 Weather Reports


time (UTC)temp
F
wind
direction
speed
knots
gust
knots
rain 1hr
in
rain 24hr
in
rain mn
in
humidity
%
barometer
mb
20260507135506 57 85 1.7 7.0 0.00 0.00 0.00 79 1014.6
20260507135006 56 89 3.5 7.8 0.00 0.00 0.00 80 1014.6
20260507134505 56 84 3.5 7.8 0.00 0.00 0.00 80 1014.7
20260507134006 55 79 1.7 6.1 0.00 0.00 0.00 81 1014.6
20260507133506 55 83 3.5 7.0 0.00 0.00 0.00 81 1014.6
20260507133006 55 74 3.5 7.0 0.00 0.00 0.00 80 1014.6
20260507132506 55 71 4.3 8.7 0.00 0.00 0.00 81 1014.6
20260507132006 55 79 5.2 9.6 0.00 0.00 0.00 81 1014.7
20260507131006 56 79 5.2 9.6 0.00 0.00 0.00 79 1014.8
20260507130006 56 83 4.3 8.7 0.00 0.00 0.00 76 1014.8
20260507125505 57 97 3.5 8.7 0.00 0.00 0.00 74 1014.7
20260507125006 58 105 1.7 8.7 0.00 0.00 0.00 71 1014.7
20260507124506 59 123 3.5 5.2 0.00 0.00 0.00 66 1014.7
20260507124006 59 134 3.5 7.0 0.00 0.00 0.00 61 1014.7
20260507123506 59 133 1.7 7.0 0.00 0.00 0.00 61 1014.7
20260507123006 59 144 0.9 6.1 0.00 0.00 0.00 63 1014.7
20260507122505 58 157 1.7 5.2 0.00 0.00 0.00 65 1014.7
20260507122006 58 158 3.5 6.1 0.00 0.00 0.00 64 1014.8
20260507121506 58 166 3.5 7.0 0.00 0.00 0.00 64 1014.7
20260507120006 59 171 4.3 8.7 0.00 0.00 0.00 62 1014.7
20260507115506 59 173 4.3 9.6 0.00 0.00 0.00 61 1014.7
20260507115005 60 167 3.5 9.6 0.00 0.00 0.00 57 1014.7
20260507114506 60 165 1.7 7.8 0.00 0.00 0.00 55 1014.7
20260507114006 60 173 1.7 6.1 0.00 0.00 0.00 54 1014.7
20260507113506 60 172 1.7 6.1 0.00 0.00 0.00 56 1014.7
20260507113006 60 175 1.7 6.1 0.00 0.00 0.00 52 1014.7
20260507112506 60 202 1.7 6.1 0.00 0.00 0.00 53 1014.7
20260507111506 61 192 3.5 7.0 0.00 0.00 0.00 53 1014.7
20260507111006 61 184 4.3 7.0 0.00 0.00 0.00 55 1014.7
20260507110006 62 161 3.5 8.7 0.00 0.00 0.00 53 1014.7
20260507105506 62 164 4.3 9.6 0.00 0.00 0.00 53 1014.8
20260507105006 63 173 4.3 9.6 0.00 0.00 0.00 54 1014.8
20260507104506 62 155 3.5 7.0 0.00 0.00 0.00 57 1014.7
20260507104005 61 163 1.7 5.2 0.00 0.00 0.00 59 1014.8
20260507103505 60 192 3.5 6.1 0.00 0.00 0.00 61 1014.8
20260507103006 60 208 3.5 6.1 0.00 0.00 0.00 60 1014.8
20260507102007 60 204 3.5 6.1 0.00 0.00 0.00 63 1014.9
20260507101507 60 211 1.7 6.1 0.00 0.00 0.00 63 1014.9
20260507101006 60 206 1.7 6.1 0.00 0.00 0.00 64 1014.9
20260507100506 60 194 1.7 6.1 0.00 0.00 0.00 61 1014.9
20260507100006 60 209 1.7 6.1 0.00 0.00 0.00 58 1014.9
20260507095506 60 225 1.7 5.2 0.00 0.00 0.00 60 1014.8
20260507095006 60 222 3.5 7.0 0.00 0.00 0.00 62 1014.9
20260507094506 60 203 3.5 7.0 0.00 0.00 0.00 60 1014.9
20260507094006 61 177 3.5 7.0 0.00 0.00 0.00 59 1014.9
20260507093006 60 171 3.5 6.1 0.00 0.00 0.00 59 1014.9
20260507092506 60 163 3.5 7.8 0.00 0.00 0.00 57 1014.9
20260507092006 60 144 3.5 7.8 0.00 0.00 0.00 60 1014.9
20260507091007 60 152 1.7 6.1 0.00 0.00 0.00 65 1014.9
20260507090506 60 140 1.7 7.0 0.00 0.00 0.00 64 1014.9
20260507090006 59 193 1.7 7.0 0.00 0.00 0.00 66 1014.9
20260507085505 59 223 1.7 6.1 0.00 0.00 0.00 69 1015.0
20260507085006 58 199 1.7 6.1 0.00 0.00 0.00 69 1015.0
20260507084506 58 191 3.5 7.0 0.00 0.00 0.00 69 1015.1
20260507084006 58 165 3.5 7.0 0.00 0.00 0.00 69 1015.1
20260507083505 58 141 3.5 6.1 0.00 0.00 0.00 72 1015.0
20260507083006 58 153 3.5 6.1 0.00 0.00 0.00 71 1015.0
20260507082505 58 179 1.7 5.2 0.00 0.00 0.00 72 1015.0
20260507082006 57 175 3.5 7.0 0.00 0.00 0.00 74 1015.0
20260507081505 56 164 1.7 7.0 0.00 0.00 0.00 73 1015.1
20260507081006 56 131 0.9 4.3 0.00 0.00 0.00 75 1015.0
20260507080505 55 105 0.9 2.6 0.00 0.00 0.00 77 1015.1
20260507075505 54 72 0.9 2.6 0.00 0.00 0.00 80 1015.1
20260507075006 53 88 0.9 2.6 0.00 0.00 0.00 81 1015.1
20260507074505 52 102 0.9 2.6 0.00 0.00 0.00 81 1015.1
20260507074005 51 0 0.0 1.7 0.00 0.00 0.00 82 1015.1
20260507073506 51 0 0.0 1.7 0.00 0.00 0.00 82 1015.1
20260507073006 51 67 0.9 2.6 0.00 0.00 0.00 83 1015.1
20260507072505 50 97 0.9 2.6 0.00 0.00 0.00 84 1015.1
20260507072006 50 0 0.0 2.6 0.00 0.00 0.00 85 1015.0
20260507071505 49 0 0.0 2.6 0.00 0.00 0.00 86 1015.0
20260507070506 48 0 0.0 1.7 0.00 0.00 0.00 87 1015.0
20260507070010 48 58 0.9 2.6 0.00 0.00 0.00 88 1015.0
20260507065506 47 32 0.9 4.3 0.00 0.00 0.00 88 1015.0
20260507064506 47 290 0.9 2.6 0.00 0.00 0.00 90 1014.9
20260507064006 47 283 0.9 2.6 0.00 0.00 0.00 90 1014.9
20260507063006 46 251 0.9 2.6 0.00 0.00 0.00 91 1014.9
20260507062506 46 255 0.9 4.3 0.00 0.00 0.00 91 1014.8
20260507062008 45 257 1.7 4.3 0.00 0.00 0.00 92 1014.9
20260507061006 45 339 1.7 6.1 0.00 0.00 0.00 93 1014.8
20260507060006 44 63 3.5 7.8 0.00 0.00 0.00 93 1014.4
20260507055506 44 60 1.7 7.0 0.00 0.00 0.00 93 1014.4
20260507054506 44 48 1.7 5.2 0.00 0.00 0.00 94 1014.5
20260507054006 43 42 0.9 5.2 0.00 0.00 0.00 94 1014.5
20260507053506 43 32 0.9 2.6 0.00 0.00 0.00 94 1014.4
20260507053006 43 33 0.9 2.6 0.00 0.00 0.00 94 1014.5
20260507052505 43 33 0.9 2.6 0.00 0.00 0.00 94 1014.5
20260507052006 43 31 0.9 1.7 0.00 0.00 0.00 94 1014.4
20260507051006 42 18 0.9 2.6 0.00 0.00 0.00 94 1014.4
20260507050506 42 0 0.0 1.7 0.00 0.00 0.00 94 1014.4
20260507045506 42 0 0.0 1.7 0.00 0.00 0.00 94 1014.4
20260507045006 42 0 0.0 1.7 0.00 0.00 0.00 94 1014.4
20260507044505 42 0 0.0 1.7 0.00 0.00 0.00 94 1014.4
20260507044005 41 0 0.0 1.7 0.00 0.00 0.00 94 1014.4
20260507043506 41 0 0.0 0.9 0.00 0.00 0.00 94 1014.4
20260507043006 41 0 0.0 0.9 0.00 0.00 0.00 94 1014.4
20260507042506 41 0 0.0 0.9 0.00 0.00 0.00 94 1014.4
20260507042006 41 0 0.0 1.7 0.00 0.00 0.00 94 1014.4
20260507041006 40 0 0.0 0.9 0.00 0.00 0.00 94 1014.4
20260507040506 40 0 0.0 0.9 0.00 0.00 0.00 94 1014.4
20260507040006 40 0 0.0 0.9 0.00 0.00 0.00 94 1014.4
20260507035506 40 0 0.0 0.9 0.00 0.00 0.00 94 1014.4
20260507035006 40 0 0.0 0.9 0.00 0.00 0.00 94 1014.4
20260507034506 39 0 0.0 0.9 0.00 0.00 0.00 94 1014.4
20260507034005 39 0 0.0 0.0 0.00 0.00 0.00 94 1014.4
20260507033506 39 0 0.0 0.0 0.00 0.00 0.00 94 1014.4
20260507033006 39 0 0.0 1.7 0.00 0.00 0.00 94 1014.3
20260507032506 39 0 0.0 1.7 0.00 0.00 0.00 94 1014.4
20260507032005 38 0 0.0 1.7 0.00 0.00 0.00 94 1014.4
20260507031505 38 0 0.0 1.7 0.00 0.00 0.00 93 1014.3
20260507030506 38 0 0.0 0.0 0.00 0.00 0.00 93 1014.3
20260507030006 38 0 0.0 0.0 0.00 0.00 0.00 93 1014.3
20260507025506 38 0 0.0 0.9 0.00 0.00 0.00 93 1014.3
20260507025006 38 0 0.0 0.9 0.00 0.00 0.00 92 1014.2
20260507024506 38 0 0.0 1.7 0.00 0.00 0.00 92 1014.2
20260507024006 38 0 0.0 1.7 0.00 0.00 0.00 92 1014.2
20260507023506 38 0 0.0 1.7 0.00 0.00 0.00 92 1014.2
20260507023006 38 0 0.0 0.9 0.00 0.00 0.00 92 1014.2
20260507022506 38 0 0.0 0.9 0.00 0.00 0.00 92 1014.2
20260507022006 38 0 0.0 0.9 0.00 0.00 0.00 92 1014.2
20260507021006 39 0 0.0 1.7 0.00 0.00 0.00 92 1014.2
20260507020506 39 53 0.9 1.7 0.00 0.00 0.00 92 1014.2
20260507020006 39 52 0.9 1.7 0.00 0.00 0.00 92 1014.2
20260507015506 39 0 0.0 1.7 0.00 0.00 0.00 91 1014.2
20260507015006 39 0 0.0 1.7 0.00 0.00 0.00 91 1014.2
20260507014506 39 0 0.0 1.7 0.00 0.00 0.00 91 1014.1
20260507014006 39 52 0.9 1.7 0.00 0.00 0.00 91 1014.1
20260507013505 39 0 0.0 1.7 0.00 0.00 0.00 91 1014.1
20260507013005 39 0 0.0 1.7 0.00 0.00 0.00 91 1014.1
20260507012508 39 0 0.0 1.7 0.00 0.00 0.00 91 1014.1
20260507012006 40 53 0.9 1.7 0.00 0.00 0.00 91 1014.1
20260507011506 40 54 0.9 1.7 0.00 0.00 0.00 91 1014.1
20260507010506 40 0 0.0 2.6 0.00 0.00 0.00 90 1014.1
20260507004506 40 37 0.9 4.3 0.00 0.00 0.00 90 1014.2
20260507004006 40 38 0.9 4.3 0.00 0.00 0.00 90 1014.1
20260507003506 40 44 0.9 2.6 0.00 0.00 0.00 90 1014.1
20260507002506 40 33 1.7 4.3 0.00 0.00 0.00 90 1014.2
20260507001506 40 0 0.0 1.7 0.00 0.00 0.00 89 1014.2
20260507001006 40 0 0.0 1.7 0.00 0.00 0.00 89 1014.2
20260507000506 41 0 0.0 0.9 0.00 0.00 0.00 89 1014.2
20260507000006 41 0 0.0 0.9 0.00 0.00 0.00 88 1014.2
20260506235506 41 0 0.0 0.0 0.00 0.00 0.00 88 1014.2
20260506235007 41 0 0.0 0.0 0.00 0.00 0.00 88 1014.2
20260506234507 41 0 0.0 1.7 0.00 0.00 0.00 87 1014.2
20260506234006 42 0 0.0 1.7 0.00 0.00 0.00 87 1014.1
20260506233506 42 0 0.0 0.9 0.00 0.00 0.00 87 1014.1
20260506233014 42 0 0.0 0.9 0.00 0.00 0.00 87 1014.1
20260506232506 42 0 0.0 0.9 0.00 0.00 0.00 87 1014.1
20260506232006 42 0 0.0 0.9 0.00 0.00 0.00 86 1014.1
20260506231505 42 0 0.0 0.0 0.00 0.00 0.00 87 1014.1
20260506231005 43 0 0.0 0.0 0.00 0.00 0.00 86 1014.1
20260506230505 43 0 0.0 0.0 0.00 0.00 0.00 86 1014.1
20260506230007 43 0 0.0 0.9 0.00 0.00 0.00 85 1014.0
20260506225506 43 0 0.0 0.9 0.00 0.00 0.00 84 1014.0
20260506225006 43 0 0.0 0.0 0.00 0.00 0.00 84 1014.0
20260506224506 44 0 0.0 0.9 0.00 0.00 0.00 84 1014.0
20260506223506 44 0 0.0 1.7 0.00 0.00 0.00 84 1013.9
20260506223005 44 0 0.0 1.7 0.00 0.00 0.00 84 1013.9
20260506222505 44 0 0.0 1.7 0.00 0.00 0.00 82 1013.9
20260506222006 44 0 0.0 1.7 0.00 0.00 0.00 82 1013.9
20260506221506 44 0 0.0 0.9 0.00 0.00 0.00 81 1013.9
20260506221006 45 0 0.0 0.9 0.00 0.00 0.00 80 1013.9
20260506220006 45 0 0.0 0.9 0.00 0.00 0.00 79 1013.8
20260506215506 46 0 0.0 0.9 0.00 0.00 0.00 78 1013.8
20260506215006 46 0 0.0 0.0 0.00 0.00 0.00 76 1013.7
20260506214506 46 0 0.0 0.0 0.00 0.00 0.00 76 1013.8
20260506214006 46 0 0.0 0.0 0.00 0.00 0.00 75 1013.8
20260506213005 47 0 0.0 0.9 0.00 0.00 0.00 74 1013.7
20260506212506 47 0 0.0 1.7 0.00 0.00 0.00 73 1013.7
20260506212006 48 0 0.0 1.7 0.00 0.00 0.00 73 1013.7
20260506210506 49 25 0.9 1.7 0.00 0.00 0.00 71 1013.6
20260506210006 49 25 0.9 1.7 0.00 0.00 0.00 70 1013.6
20260506205506 50 32 0.9 1.7 0.00 0.00 0.00 70 1013.6
20260506205006 50 0 0.0 1.7 0.00 0.00 0.00 70 1013.5
20260506203505 51 0 0.0 1.7 0.00 0.00 0.00 69 1013.4
20260506203005 51 0 0.0 0.9 0.00 0.00 0.00 68 1013.3
20260506202505 52 0 0.0 0.9 0.00 0.00 0.00 67 1013.2
20260506202006 52 0 0.0 1.7 0.00 0.00 0.00 66 1013.2
20260506201506 53 78 0.9 2.6 0.00 0.00 0.00 66 1013.1
20260506201006 53 71 0.9 2.6 0.00 0.00 0.00 65 1013.0
20260506200506 53 57 0.9 2.6 0.00 0.00 0.00 64 1013.0
20260506200006 53 49 0.9 2.6 0.00 0.00 0.00 63 1012.9
20260506195506 54 0 0.0 1.7 0.00 0.00 0.00 62 1012.9
20260506195005 54 0 0.0 1.7 0.00 0.00 0.00 61 1012.9
20260506194505 54 51 0.9 2.6 0.00 0.00 0.00 61 1012.9
20260506193506 55 59 1.7 4.3 0.00 0.00 0.00 60 1012.7
20260506193006 55 60 0.9 2.6 0.00 0.00 0.00 60 1012.7
20260506192506 55 57 1.7 4.3 0.00 0.00 0.00 59 1012.7
20260506192006 55 54 1.7 4.3 0.00 0.00 0.00 58 1012.7
20260506191506 56 55 1.7 4.3 0.00 0.00 0.00 58 1012.7
20260506191006 56 57 1.7 5.2 0.00 0.00 0.00 56 1012.6
20260506190506 56 40 1.7 6.1 0.00 0.00 0.00 55 1012.6
20260506190006 56 20 1.7 6.1 0.00 0.00 0.00 55 1012.5
20260506185505 56 19 0.9 4.3 0.00 0.00 0.00 55 1012.5
20260506185006 56 15 1.7 4.3 0.00 0.00 0.00 55 1012.5
20260506184506 56 17 1.7 5.2 0.00 0.00 0.00 54 1012.5
20260506184006 57 32 1.7 5.2 0.00 0.00 0.00 53 1012.4
20260506183506 57 30 1.7 5.2 0.00 0.00 0.00 53 1012.4
20260506183006 57 22 1.7 5.2 0.00 0.00 0.00 53 1012.3
20260506182506 57 15 1.7 5.2 0.00 0.00 0.00 53 1012.3
20260506182006 57 11 1.7 5.2 0.00 0.00 0.00 53 1012.4
20260506181006 58 22 3.5 6.1 0.00 0.00 0.00 52 1012.4
20260506180505 58 27 3.5 5.2 0.00 0.00 0.00 51 1012.3
20260506180006 58 33 1.7 4.3 0.00 0.00 0.00 50 1012.2
20260506175506 58 32 1.7 4.3 0.00 0.00 0.00 51 1012.1
20260506175006 58 32 1.7 4.3 0.00 0.00 0.00 51 1012.0
20260506174506 58 49 1.7 4.3 0.00 0.00 0.00 50 1012.0
20260506174006 58 57 3.5 7.8 0.00 0.00 0.00 51 1012.0
20260506173005 58 46 1.7 7.0 0.00 0.00 0.00 50 1012.0
20260506172506 58 32 1.7 5.2 0.00 0.00 0.00 51 1012.0
20260506171506 58 16 3.5 9.6 0.00 0.00 0.00 51 1011.9
20260506171006 58 351 3.5 9.6 0.00 0.00 0.00 50 1011.9
20260506170505 59 327 3.5 8.7 0.00 0.00 0.00 50 1011.9
20260506165506 59 23 3.5 9.6 0.00 0.00 0.00 51 1012.0
20260506165006 59 34 3.5 9.6 0.00 0.00 0.00 52 1012.0
20260506164006 59 13 3.5 7.0 0.00 0.00 0.00 50 1012.0
20260506163006 59 26 1.7 4.3 0.00 0.00 0.00 50 1011.9
20260506162506 59 351 1.7 7.0 0.00 0.00 0.00 50 1012.0
20260506162006 59 354 3.5 7.0 0.00 0.00 0.00 49 1012.0
20260506161006 59 10 3.5 7.8 0.00 0.00 0.00 48 1012.0
20260506160505 59 13 3.5 7.8 0.00 0.00 0.00 49 1011.9
20260506160006 59 354 1.7 7.0 0.00 0.00 0.00 48 1011.9
20260506155506 59 357 3.5 6.1 0.00 0.00 0.00 46 1012.0
20260506155006 60 347 1.7 6.1 0.00 0.00 0.00 47 1012.0
20260506154505 60 347 3.5 7.0 0.00 0.00 0.00 48 1012.0
20260506153505 60 2 3.5 7.0 0.00 0.00 0.00 47 1012.0
20260506153006 60 20 3.5 7.0 0.00 0.00 0.00 49 1012.1
20260506152005 59 9 1.7 7.0 0.00 0.00 0.00 48 1012.1
20260506151006 60 28 4.3 7.8 0.00 0.00 0.00 48 1012.1
20260506150506 60 22 5.2 8.7 0.00 0.00 0.00 48 1012.2
20260506150005 60 14 5.2 8.7 0.00 0.00 0.00 47 1012.1
20260506145506 60 8 3.5 8.7 0.00 0.00 0.00 45 1012.2
20260506145006 60 14 3.5 5.2 0.00 0.00 0.00 47 1012.2
20260506144505 60 26 3.5 7.0 0.00 0.00 0.00 46 1012.3
20260506143506 61 354 4.3 9.6 0.00 0.00 0.00 46 1012.3
20260506142506 62 334 3.5 8.7 0.00 0.00 0.00 44 1012.3
20260506142006 61 351 4.3 7.8 0.00 0.00 0.00 44 1012.3
20260506141505 61 349 4.3 8.7 0.00 0.00 0.00 45 1012.3
20260506141006 61 340 3.5 8.7 0.00 0.00 0.00 46 1012.3
20260506140506 61 349 4.3 7.8 0.00 0.00 0.00 46 1012.3
20260506140006 61 359 5.2 12.2 0.00 0.00 0.00 44 1012.3